Simultaneous Nadir Overpasses (SNOs) Predictions

Prediction of SNOs between LANDSAT-8 and METOP-A Satellite Orbit:

Table of predicted SNOs for the next 14.0 days since TLE Epoch: 12/27/2014
Index Date (LANDSAT-8) Time (LANDSAT-8) Lat,Lon (LANDSAT-8) SZA (LANDSAT-8 ) Date (METOP-A) Time (METOP-A) Lat,Lon (METOP-A) SZA (METOP-A ) Distance(km) Time Diff (sec)
1 12/28/2014 03:11:56 81.10, 171.35 106.23 12/28/2014 03:11:19 81.11, 171.51 106.24 2.92 37
2 12/28/2014 04:01:22 -81.12, -20.71 73.74 12/28/2014 04:01:59 -81.12, -20.79 73.73 1.32 37
3 12/30/2014 22:46:08 81.11,-122.00 106.06 12/30/2014 22:45:39 81.11,-122.04 106.04 0.84 29
4 12/30/2014 23:35:34 -81.13, 45.95 73.90 12/30/2014 23:36:18 -81.14, 46.04 73.88 1.54 44
5 01/02/2015 18:20:19 81.11, -55.60 105.79 01/02/2015 18:19:58 81.11, -55.67 105.78 1.22 21
6 01/02/2015 19:09:45 -81.13, 112.36 74.17 01/02/2015 19:10:37 -81.13, 112.41 74.14 0.97 52
7 01/05/2015 13:54:30 81.11, 10.91 105.49 01/05/2015 13:54:17 81.12, 11.00 105.49 1.65 13
8 01/05/2015 14:43:56 -81.14, 178.88 74.48 01/05/2015 14:44:57 -81.13, 178.71 74.47 2.97 61
9 01/08/2015 09:28:40 81.12, 77.52 105.13 01/08/2015 09:28:36 81.12, 77.59 105.14 1.21 4




NCC Satellite Simultaneous Nadir Overpasses (SNOs) Prediction Service
